KC1RCJ Weather Reports


time (UTC)temp
C
wind
direction
speed
KPH
gust
KPH
rain 1hr
cm
rain 24hr
cm
rain mn
cm
humidity
%
barometer
mb
20260508100029 6 317 6.4 12.9 0.00 0.00 0.00 67 1005.4
20260508094527 6 292 3.2 9.7 0.00 0.00 0.00 68 1005.0
20260508093028 5 267 3.2 11.3 0.00 0.00 0.00 68 1005.1
20260508091532 5 333 6.4 12.9 0.00 0.00 0.00 67 1004.9
20260508090031 5 280 6.4 12.9 0.00 0.00 0.00 66 1004.8
20260508084528 6 302 6.4 14.5 0.00 0.00 0.00 67 1004.6
20260508083031 6 311 8.0 14.5 0.00 0.00 0.00 65 1004.6
20260508081537 5 284 8.0 14.5 0.00 0.00 0.00 68 1004.7
20260508080031 5 286 3.2 9.7 0.00 0.00 0.00 71 1004.8
20260508074528 5 0 0.0 6.4 0.00 0.03 0.00 70 1004.6
20260508073039 5 269 3.2 9.7 0.00 0.03 0.00 69 1004.5
20260508071528 5 307 3.2 9.7 0.00 0.03 0.00 70 1004.7
20260508070054 4 287 1.6 3.2 0.00 0.03 0.00 69 1004.5
20260508064534 5 0 1.6 4.8 0.00 0.05 0.00 67 1004.6
20260508063028 5 287 0.0 4.8 0.00 0.05 0.00 66 1004.6
20260508061532 5 274 1.6 11.3 0.00 0.05 0.00 66 1004.6
20260508060032 5 293 3.2 9.7 0.00 0.05 0.00 65 1004.7
20260508054530 5 302 0.0 3.2 0.00 0.58 0.00 66 1005.0
20260508053030 6 302 1.6 8.0 0.00 0.58 0.00 67 1005.0
20260508051528 6 277 4.8 11.3 0.00 0.58 0.00 61 1004.9
20260508050030 6 277 3.2 4.8 0.00 0.58 0.00 60 1005.1
20260508044528 6 277 1.6 3.2 0.00 0.61 0.00 58 1005.2
20260508043048 7 287 1.6 9.7 0.00 0.61 0.00 57 1005.3
20260508041528 7 307 4.8 11.3 0.00 0.61 0.00 57 1005.3
20260508040032 7 317 4.8 11.3 0.00 0.61 0.00 58 1005.4
20260508034529 7 313 6.4 14.5 0.00 0.61 0.61 57 1005.6
20260508033032 8 302 8.0 14.5 0.00 0.61 0.61 56 1005.7
20260508031528 8 311 9.7 17.7 0.00 0.61 0.61 54 1005.2
20260508030042 8 290 9.7 20.9 0.00 0.61 0.61 53 1005.3
20260508024534 8 294 17.7 24.1 0.00 0.91 0.61 53 1005.1
20260508023032 9 325 16.1 20.9 0.00 0.91 0.61 54 1005.0
20260508021530 9 313 16.1 22.5 0.00 0.91 0.61 53 1005.2
20260508020028 10 303 19.3 25.7 0.00 0.91 0.61 51 1005.3
20260508014529 10 321 20.9 30.6 0.00 1.47 0.61 52 1005.5
20260508013029 10 311 20.9 32.2 0.00 1.47 0.61 50 1005.2
20260508011532 10 310 24.1 37.0 0.00 1.47 0.61 51 1005.1
20260508010031 11 319 27.4 37.0 0.00 1.47 0.61 51 1004.9
20260508004529 11 309 24.1 37.0 0.00 1.88 0.61 53 1004.7
20260508003030 11 319 20.9 30.6 0.00 1.88 0.61 56 1004.4
20260508001531 11 306 22.5 30.6 0.00 1.88 0.61 63 1004.1
20260508000029 11 331 11.3 22.5 0.00 1.88 0.61 73 1003.8
20260507234536 10 0 0.0 6.4 0.00 2.26 0.61 74 1003.6
20260507233028 11 141 1.6 6.4 0.00 2.26 0.61 73 1003.3
20260507231530 11 0 0.0 4.8 0.00 2.26 0.61 72 1003.2
20260507230032 11 0 0.0 6.4 0.00 2.26 0.61 71 1002.9
20260507224529 11 0 0.0 6.4 0.00 2.36 0.61 71 1002.8
20260507223028 11 30 1.6 11.3 0.00 2.36 0.61 70 1002.7
20260507221528 11 178 8.0 20.9 0.00 2.36 0.61 69 1002.5
20260507220030 11 222 4.8 16.1 0.00 2.36 0.61 67 1002.7
20260507214530 11 159 6.4 19.3 0.00 2.44 0.61 66 1002.6
20260507213031 12 201 12.9 25.7 0.00 2.44 0.61 65 1002.7
20260507211530 12 203 11.3 22.5 0.00 2.44 0.61 65 1002.8
20260507210029 12 184 9.7 25.7 0.00 2.44 0.61 65 1002.7
20260507204530 13 160 12.9 30.6 0.00 2.44 0.61 64 1002.5
20260507203032 13 190 8.0 27.4 0.00 2.44 0.61 64 1002.5
20260507201537 14 229 12.9 35.4 0.00 2.44 0.61 61 1002.6
20260507200027 13 204 12.9 25.7 0.00 2.44 0.61 62 1002.5
20260507194528 14 192 9.7 22.5 0.00 2.44 0.61 63 1002.6
20260507193032 14 205 11.3 25.7 0.00 2.44 0.61 64 1002.5
20260507191534 13 190 11.3 25.7 0.00 2.44 0.61 66 1002.7
20260507190031 14 242 12.9 29.0 0.00 2.44 0.61 65 1002.6
20260507184528 14 207 12.9 27.4 0.00 2.44 0.61 63 1002.7
20260507183038 15 215 12.9 24.1 0.00 2.44 0.61 63 1002.8
20260507181530 15 195 14.5 29.0 0.00 2.44 0.61 64 1002.7
20260507180032 12 162 17.7 27.4 0.00 2.44 0.61 71 1003.0
20260507174535 12 155 17.7 27.4 0.00 2.44 0.61 73 1003.2
20260507173034 12 169 16.1 24.1 0.00 2.44 0.61 72 1003.1
20260507171531 11 162 17.7 24.1 0.00 2.44 0.61 74 1003.1
20260507170030 11 170 16.1 25.7 0.00 2.44 0.61 77 1003.2
20260507164531 11 158 22.5 25.7 0.00 2.44 0.61 72 1003.4
20260507163036 11 177 14.5 25.7 0.00 2.44 0.61 73 1003.6
20260507161529 12 168 14.5 24.1 0.00 2.44 0.61 70 1003.5
20260507160035 11 160 12.9 17.7 0.00 2.44 0.61 72 1003.6
20260507154528 11 167 8.0 12.9 0.00 2.44 0.61 70 1003.9
20260507153031 11 164 8.0 12.9 0.00 2.44 0.61 75 1004.0
20260507151531 11 106 6.4 9.7 0.00 2.44 0.61 72 1004.3
20260507150030 11 85 3.2 6.4 0.00 2.44 0.61 74 1004.3
20260507144528 11 88 6.4 9.7 0.00 2.44 0.61 74 1004.4
20260507143050 11 117 4.8 6.4 0.00 2.44 0.61 75 1004.6
20260507141547 11 5 4.8 12.9 0.00 2.44 0.61 74 1004.8
20260507140032 10 5 3.2 9.7 0.00 2.44 0.61 75 1004.8
20260507134528 10 360 8.0 16.1 0.00 2.44 0.61 76 1004.8
20260507133027 10 331 12.9 20.9 0.00 2.44 0.61 77 1005.2
20260507131538 10 294 16.1 22.5 0.00 2.44 0.61 79 1005.3
20260507130040 10 330 16.1 24.1 0.00 2.44 0.61 80 1005.0
20260507124530 9 325 8.0 17.7 0.00 2.44 0.61 83 1005.0
20260507123030 9 294 14.5 24.1 0.00 2.44 0.61 84 1004.8
20260507121530 8 313 12.9 16.1 0.00 2.44 0.61 86 1004.8
20260507120030 8 323 6.4 14.5 0.00 2.44 0.61 86 1004.8
20260507114531 8 291 6.4 12.9 0.00 2.44 0.61 89 1005.4
20260507113030 8 294 6.4 12.9 0.00 2.44 0.61 88 1005.7
20260507111530 8 271 6.4 17.7 0.00 2.44 0.61 87 1005.9
20260507110030 8 287 12.9 20.9 0.00 2.44 0.61 86 1005.6
20260507104531 8 284 12.9 22.5 0.00 2.44 0.61 87 1005.6
20260507103031 7 295 12.9 22.5 0.00 2.44 0.61 88 1004.8
20260507101528 8 269 14.5 25.7 0.00 2.44 0.61 88 1004.6